Weather History for Guatemala Aeropuertola Aurora, Guatemala

Change the Weather History Date:

Sunday, October 27, 2013

  Actual Average Record
Temperature  
Mean Temperature 68 °F -  
Max Temperature 75 °F 71 °F - ()
Min Temperature 62 °F 56 °F - ()
Cooling Degree Days 4    
Growing Degree Days 18 (Base 50)    
Moisture  
Dew Point 63 °F    
Average Humidity 89    
Maximum Humidity 100    
Minimum Humidity 65    
Precipitation  
Precipitation 0.04 in - - ()
Sea Level Pressure  
Sea Level Pressure 30.20 in    
Wind  
Wind Speed 6 mph ()    
Max Wind Speed 12 mph    
Max Gust Speed -    
Visibility 5.4 miles    
Events Rain    
T = Trace of Precipitation, MM = Missing Value Source: Averaged Metar Reports

Daily Weather History Graph

Daily Weather History Graph

Search for Another Location

Airport:

Trip Planner

Search our weather history database for the weather conditions in past years. The results will help you decide how hot, cold, wet, or windy it might be!

Date:

Astronomy

Oct. 27, 2013 Rise Set
Actual Time 5:56 AM CST 5:35 PM CST
Civil Twilight 5:34 AM CST 5:57 PM CST
Nautical Twilight 5:08 AM CST 6:22 PM CST
Astronomical Twilight 4:43 AM CST 6:47 PM CST
Moon No Moon Rise 12:45 PM CST (10/27)
Length of Visible Light 12h 23m
Length of Day
11h 39m
Last Quarter, 43% of the Moon is Illuminated
Oct 27
Last Quarter
Nov 3
New
Nov 9
First Quarter
Nov 17
Full
Nov 25
Last Quarter

Hourly Weather History & Observations

Time (CST) Temp. Dew Point Humidity Pressure Visibility Wind Dir Wind Speed Gust Speed Precip Events Conditions
12:00 AM 64.4 °F 62.6 °F 94% 30.24 in 3.1 mi North 4.6 mph - N/A Rain Rain
12:10 AM - - N/A% - 0.9 mi North 9.2 mph - N/A Rain Heavy Rain
12:20 AM - - N/A% - 1.9 mi North 6.9 mph - N/A   Scattered Clouds
12:30 AM - - N/A% - 5.0 mi North 6.9 mph - N/A   Light Drizzle
1:00 AM 64.4 °F 62.6 °F 94% 30.24 in 6.2 mi North 9.2 mph - N/A   Light Drizzle
2:00 AM 62.6 °F 62.6 °F 100% 30.21 in 5.0 mi North 9.2 mph - N/A   Light Drizzle
3:00 AM 62.6 °F 62.6 °F 100% 30.18 in 5.0 mi North 6.9 mph - N/A   Mostly Cloudy
4:00 AM 62.6 °F 62.6 °F 100% 30.18 in 6.2 mi North 9.2 mph - N/A   Mostly Cloudy
5:00 AM 62.6 °F 60.8 °F 94% 30.18 in 6.2 mi NNE 5.8 mph - N/A   Mostly Cloudy
6:00 AM 62.6 °F 62.6 °F 100% 30.21 in 6.2 mi NNE 11.5 mph - N/A   Mostly Cloudy
7:00 AM 64.4 °F 60.8 °F 88% 30.24 in 6.2 mi NNE 6.9 mph - N/A   Mostly Cloudy
8:00 AM 64.4 °F 62.6 °F 94% 30.27 in 5.0 mi NNE 6.9 mph - N/A   Light Drizzle
9:00 AM 64.4 °F 62.6 °F 94% 30.27 in 6.2 mi NNE 4.6 mph - N/A   Light Drizzle
9:33 AM - - N/A% - 6.2 mi North 4.6 mph - N/A   Mostly Cloudy
10:00 AM 68.0 °F 62.6 °F 83% 30.27 in 6.2 mi NNE 5.8 mph - N/A   Mostly Cloudy
11:00 AM 69.8 °F 62.6 °F 78% 30.24 in 6.2 mi NNE 9.2 mph - N/A   Scattered Clouds
12:00 PM 71.6 °F 62.6 °F 73% 30.21 in 6.2 mi North 11.5 mph - N/A   Mostly Cloudy
1:00 PM 73.4 °F 62.6 °F 69% 30.18 in 6.2 mi North 11.5 mph - N/A   Mostly Cloudy
2:00 PM 73.4 °F 64.4 °F 73% 30.15 in 6.2 mi NNE 9.2 mph - N/A   Mostly Cloudy
3:00 PM 75.2 °F 62.6 °F 65% 30.12 in 6.2 mi NNE 11.5 mph - N/A   Mostly Cloudy
4:00 PM 71.6 °F 60.8 °F 69% 30.15 in 6.2 mi NE 9.2 mph - N/A   Scattered Clouds
5:00 PM 69.8 °F 62.6 °F 78% 30.18 in 6.2 mi NNE 9.2 mph - N/A   Mostly Cloudy
5:10 PM - - N/A% - 6.2 mi NNE 9.2 mph - N/A   Drizzle
6:00 PM 66 °F 64 °F 92% 29.88 in 4 mi NNE 4.6 mph - - Rain Rain
6:00 PM 66.2 °F 64.4 °F 94% 30.18 in 4.3 mi NNE 4.6 mph - N/A Rain Rain
6:28 PM - - N/A% - 6.2 mi NNE 6.9 mph - N/A   Mostly Cloudy
7:00 PM 66.2 °F 64.4 °F 94% 30.21 in 6.2 mi NNE 4.6 mph - N/A   Scattered Clouds
7:20 PM - - N/A% - 6.2 mi NNE 4.6 mph - N/A   Light Drizzle
7:30 PM - - N/A% - 1.9 mi North 4.6 mph - N/A Rain Heavy Rain
8:00 PM 64.4 °F 64.4 °F 100% 30.24 in 6.2 mi Calm Calm - N/A   Light Drizzle
8:33 PM - - N/A% - 6.2 mi NNE 4.6 mph - N/A   Mostly Cloudy
9:00 PM 66.2 °F 64.4 °F 94% 30.27 in 5.0 mi NNE 4.6 mph - N/A   Drizzle
10:00 PM 64.4 °F 64.4 °F 100% 30.27 in 6.2 mi NNE 4.6 mph - N/A   Mostly Cloudy
11:00 PM 64.4 °F 64.4 °F 100% 30.24 in 5.0 mi North 4.6 mph - N/A   Light Drizzle